Regional Weather Roundup
Issued by NWS

Home | Current Version | Previous Version | Text Only | Print | Product List | Glossary On
Versions: 1 2 3 4 5 6 7 8 9 10 11 12 13 14 15 16 17 18 19 20 21 22 23 24 25 26 27 28 29 30 31 32 33 34 35 36 37 38 39 40 41 42 43 44 45 46 47 48 49 50
502
ASUS43 KOAX 241802
RWRNE

WEATHER ROUNDUP FOR NEBRASKA
NATIONAL WEATHER SERVICE OMAHA NE
100 PM CDT SAT JUN 24 2017

NOTES: SATELLITE DATA IS BEING USED TO AUGMENT CLOUD COVER ABOVE
       12000 FEET.
       "FAIR" INDICATES FEW OR NO CLOUDS BELOW 12,000 FEET WITH NO
       SIGNIFICANT WEATHER AND/OR OBSTRUCTIONS TO VISIBILITY.

  * THESE STATIONS DO NOT REPORT WEATHER SUCH AS RAIN...SNOW OR FOG.

NEZ001>004-019>022-054>056-241900-
NEBRASKA PANHANDLE

CITY           SKY/WX    TMP DP  RH WIND       PRES   REMARKS
SCOTTSBLUFF    CLOUDY    69  34  27 VRB5      30.32S
6HR MIN TEMP:  55; 6HR MAX TEMP:  70;

ALLIANCE       SUNNY     71  34  25 SW8       30.30S
6HR MIN TEMP:  50; 6HR MAX TEMP:  71;

CHADRON        MOSUNNY   73  37  27 N9G16     30.29S
6HR MIN TEMP:  45; 6HR MAX TEMP:  73;

GORDON         CLOUDY    66  32  28 N13       30.31R
6HR MIN TEMP:  43; 6HR MAX TEMP:  66;

KIMBALL        CLOUDY    67  39  35 E3        30.34S
SIDNEY         MOSUNNY   72  33  24 E6        30.32S
6HR MIN TEMP:  53; 6HR MAX TEMP:  72;

$$

NEZ057>060-069>072-079>082-241900-
SOUTHWEST NEBRASKA

CITY           SKY/WX    TMP DP  RH WIND       PRES   REMARKS
NORTH PLATTE   CLOUDY    75  35  23 MISG      30.27F
6HR MIN TEMP:  51; 6HR MAX TEMP:  77;

IMPERIAL       CLOUDY    70  40  33 SE5       30.30S
6HR MIN TEMP:  55; 6HR MAX TEMP:  71;

LEXINGTON      CLOUDY    71  38  30 SW7       30.29R
MCCOOK         CLOUDY    72  42  34 VRB3      30.29S
6HR MIN TEMP:  48; 6HR MAX TEMP:  73;

OGALLALA       CLOUDY    69  38  31 SW5       30.31S
$$

NEZ005>010-023>029-035>040-094-241900-
NORTH CENTRAL NEBRASKA

CITY           SKY/WX    TMP DP  RH WIND       PRES   REMARKS
VALENTINE      PTSUNNY   74  27  17 NW17G31   30.24R
6HR MIN TEMP:  43; 6HR MAX TEMP:  76;

AINSWORTH      CLOUDY    71  35  26 W21G28    30.24S
BROKEN BOW     MOSUNNY   77  36  22 NW14G22   30.25S
6HR MIN TEMP:  51; 6HR MAX TEMP:  77;

O`NEILL        MOSUNNY   74  34  22 W17G33    30.21S
ORD            MOSUNNY   78  33  19 W21G29    30.21F
6HR MIN TEMP:  47; 6HR MAX TEMP:  78;

THEDFORD       MOSUNNY   76  35  22 NW17G23   30.26F
$$

NEZ041-046>049-061>064-073>077-083>087-241900-
SOUTH CENTRAL NEBRASKA

CITY           SKY/WX    TMP DP  RH WIND       PRES   REMARKS
GRAND ISLAND   SUNNY     74  36  25 W12G21    30.25S
6HR MIN TEMP:  52; 6HR MAX TEMP:  76;

AURORA         SUNNY     75  38  25 W12G18    30.25S
HASTINGS       CLOUDY    76  31  19 W8G23     30.28S
6HR MIN TEMP:  51; 6HR MAX TEMP:  77;

HEBRON         SUNNY     77  35  22 CALM      30.26S
HOLDREGE       CLOUDY    69  38  31 SW10      30.29S
KEARNEY *      CLOUDY    75  39  27 SW13      30.27S
$$

NEZ011>018-030>034-042>045-241900-
NORTHEAST NEBRASKA

CITY           SKY/WX    TMP DP  RH WIND       PRES   REMARKS
NORFOLK        MOSUNNY   76  36  23 NW22G35   30.18S
6HR MIN TEMP:  50; 6HR MAX TEMP:  76;

ALBION         PTSUNNY   76  32  19 NW16G25   30.20F
BLAIR          PTSUNNY   75  38  25 W13G22    30.18S
FREMONT        MOSUNNY   76  38  24 W20G30    30.19S
TEKAMAH        PTSUNNY   78  35  21 W21G26    30.15S
6HR MIN TEMP:  53; 6HR MAX TEMP:  78;

WAYNE          MOSUNNY   76  33  21 NW25G32   30.15F
$$

NEZ050>053-065>068-078-088>093-241900-
SOUTHEAST NEBRASKA

CITY           SKY/WX    TMP DP  RH WIND       PRES   REMARKS
LINCOLN        SUNNY     78  37  22 W17G23    30.22S
6HR MIN TEMP:  50; 6HR MAX TEMP:  78;

OMAHA EPPLEY   MOSUNNY   78  37  22 W21G26    30.17S
6HR MIN TEMP:  55; 6HR MAX TEMP:  79;

BEATRICE       SUNNY     76  41  28 NW5       30.24S
FALLS CITY     SUNNY     74  41  30 VRB6      30.22F
6HR MIN TEMP:  54; 6HR MAX TEMP:  75;

NEBRASKA CITY  SUNNY     74  45  36 W15       30.22S
PLATTSMOUTH    SUNNY     75  39  27 W10G17    30.20F
$$

NEZ044-045-051>053-067-241900-
OMAHA AREA

CITY           SKY/WX    TMP DP  RH WIND       PRES   REMARKS
OMAHA EPPLEY   MOSUNNY   78  37  22 W21G26    30.17S
6HR MIN TEMP:  55; 6HR MAX TEMP:  79;

BLAIR          PTSUNNY   75  38  25 W13G22    30.18S
FREMONT        MOSUNNY   76  38  24 W20G30    30.19S
MILLARD        SUNNY     78  40  25 NW15G26   30.19S
OFFUTT AFB     SUNNY     76  38  24 W14G23    30.18S
PLATTSMOUTH    SUNNY     75  39  27 W10G17    30.20F
WAHOO          FAIR      78  33  19 W21G30    30.20S
$$




USA.gov is the U.S. government's official web portal to all federal, state and local government web resources and services.